,

(GMT )
Resia Pass

Weather History for LIVE - May, 2013

Change the Weather History Date:

Saturday, May 11, 2013

  Actual Average Record
Temperature  
Mean Temperature 50 °F -  
Max Temperature 57 °F - - ()
Min Temperature 42 °F - - ()
Degree Days  
Heating Degree Days 16    
Moisture  
Dew Point 35 °F    
Average Humidity 65    
Maximum Humidity 81    
Minimum Humidity 36    
Precipitation  
Precipitation 0.00 in - - ()
Sea Level Pressure  
Sea Level Pressure 29.93 in    
Wind  
Wind Speed 6 mph ()    
Max Wind Speed 10 mph    
Max Gust Speed 26 mph    
Visibility 6.2 miles    
Events      
T = Trace of Precipitation, MM = Missing Value Source: Averaged Metar Reports

Daily Weather History Graph

Daily Weather History Graph

Search for Another Location

Airport or City:

Trip Planner

Search our weather history database for the weather conditions in past years. The results will help you decide how hot, cold, wet, or windy it might be!

Date:

Astronomy

May. 11, 2013 Rise Set
Actual Time 5:48 AM CEST 8:41 PM CEST
Civil Twilight 5:13 AM CEST 9:16 PM CEST
Nautical Twilight 4:28 AM CEST 10:01 PM CEST
Astronomical Twilight 3:34 AM CEST 10:56 PM CEST
Moon 6:42 AM CEST (5/11) 10:09 PM CEST (5/11)
Length of Visible Light 16h 03m
Length of Day
14h 52m
New Moon, 2% of the Moon is Illuminated
May 11
New Moon
May 18
First Quarter
May 25
Full
May 31
Last Quarter
Jun 8
New

Hourly Weather History & Observations

Time (CEST) Temp. Windchill Dew Point Humidity Pressure Visibility Wind Dir Wind Speed Gust Speed Precip Events Conditions
12:55 AM 44.6 °F 41.4 °F 39.2 °F 81% 29.98 in 6.2 mi NNE 5.8 mph - N/A   Mostly Cloudy
1:55 AM 44.6 °F 41.4 °F 37.4 °F 76% 29.98 in 6.2 mi NNE 5.8 mph - N/A   Mostly Cloudy
2:55 AM 44.6 °F 40.2 °F 37.4 °F 76% 29.95 in 6.2 mi NNE 8.1 mph - N/A   Mostly Cloudy
3:55 AM 44.6 °F 40.7 °F 37.4 °F 76% 29.92 in 6.2 mi NNE 6.9 mph - N/A   Mostly Cloudy
4:55 AM 44.6 °F 41.4 °F 37.4 °F 76% 29.92 in 6.2 mi NNE 5.8 mph - N/A   Overcast
5:55 AM 42.8 °F 38.6 °F 37.4 °F 81% 29.92 in 6.2 mi NE 6.9 mph - N/A   Overcast
6:55 AM 42.8 °F 38.6 °F 37.4 °F 81% 29.89 in 6.2 mi NE 6.9 mph - N/A   Overcast
7:55 AM 42.8 °F 38.6 °F 37.4 °F 81% 29.92 in 6.2 mi NE 6.9 mph - N/A   Overcast
8:55 AM 42.8 °F 39.3 °F 37.4 °F 81% 29.92 in 6.2 mi NE 5.8 mph - N/A   Overcast
9:55 AM 44.6 °F 40.2 °F 37.4 °F 76% 29.92 in 6.2 mi NNE 8.1 mph 20.7 mph N/A   Overcast
10:55 AM 46.4 °F 41.5 °F 35.6 °F 66% 29.92 in 6.2 mi North 10.4 mph 24.2 mph N/A   Overcast
11:55 AM 50.0 °F - 33.8 °F 54% 29.92 in 6.2 mi North 9.2 mph 20.7 mph N/A   Scattered Clouds
12:55 PM 53.6 °F - 32.0 °F 44% 29.92 in 6.2 mi North 8.1 mph 21.9 mph N/A   Mostly Cloudy
1:55 PM 55.4 °F - 28.4 °F 36% 29.89 in 6.2 mi North 9.2 mph 24.2 mph N/A   Scattered Clouds
2:55 PM 57.2 °F - 30.2 °F 36% 29.89 in 6.2 mi NNW 10.4 mph 25.3 mph N/A   Mostly Cloudy
3:55 PM 55.4 °F - 28.4 °F 36% 29.89 in 6.2 mi North 10.4 mph 23.0 mph N/A   Mostly Cloudy
4:55 PM 53.6 °F - 30.2 °F 41% 29.92 in 6.2 mi North 9.2 mph 23.0 mph N/A   Mostly Cloudy
5:55 PM 51.8 °F - 30.2 °F 44% 29.92 in 6.2 mi NNW 8.1 mph 23.0 mph N/A   Mostly Cloudy
6:55 PM 50.0 °F - 32.0 °F 50% 29.92 in 6.2 mi NNW 9.2 mph - N/A   Mostly Cloudy
7:55 PM 46.4 °F 45.2 °F 37.4 °F 71% 29.92 in 6.2 mi North 3.5 mph - N/A   Mostly Cloudy
8:55 PM 44.6 °F 42.2 °F 37.4 °F 76% 29.95 in 6.2 mi NNE 4.6 mph - N/A   Mostly Cloudy
9:55 PM 44.6 °F 39.7 °F 37.4 °F 76% 29.98 in 6.2 mi North 9.2 mph 26.5 mph N/A   Mostly Cloudy
10:55 PM 44.6 °F 43.1 °F 35.6 °F 71% 30.01 in 6.2 mi NNE 3.5 mph - N/A   Mostly Cloudy
11:55 PM 44.6 °F - 35.6 °F 71% 30.01 in 6.2 mi Calm Calm - N/A   Mostly Cloudy